Location: Oshawa
(43.9000°N, 78.8670°W)
Time: 23:18:22
(UTC-05:00)

Cosmos 1821 Rocket - Visible Passes

Search period start: 26 November 2014 00:00
Search period end: 06 December 2014 00:00
Orbit: 945 x 1006 km, 82.9° (Epoch: 25 November)

Date Brightness Start Highest point End Pass type
(mag) Time Alt. Az. Time Alt. Az. Time Alt. Az.
26 Nov 6.5 06:41:25 10° NE 06:44:14 13° ENE 06:47:03 10° E visible
29 Nov 6.7 06:13:05 10° NE 06:14:52 11° ENE 06:16:40 10° ENE visible
30 Nov 6.3 06:36:24 10° NNE 06:40:53 20° ENE 06:45:22 10° ESE visible
03 Dec 6.4 06:07:31 10° NNE 06:11:34 18° ENE 06:15:38 10° ESE visible
04 Dec 5.9 06:31:58 10° N 06:37:24 30° ENE 06:42:52 10° SE visible
05 Dec 4.9 06:56:57 10° N 07:03:03 52° ENE 07:09:12 10° SSE visible
